Regional Weather Roundup
Issued by NWS

Home | Current Version | Previous Version | Text Only | Print | Product List | Glossary On
Versions: 1 2 3 4 5 6 7 8 9 10 11 12 13 14 15 16 17 18 19 20 21 22 23 24 25 26 27
000
ASPQ40 PGUM 290612
RWRPQ
WEATHER ROUNDUP FOR THE MARIANAS AND MICRONESIA
NATIONAL WEATHER SERVICE TIYAN GU
400 PM CHST SAT APR 29 2017

GUZ001>004-290700-
MARIANA ISLANDS-

CITY           SKY/WX    TMP DP  RH WIND       PRES   REMARKS
GUAM AIRPORT   MOSUNNY   84  75  74 E9        29.88S HX  92
ANDERSEN AFB   MOSUNNY   84  75  74 SE10      29.89S HX  92
ROTA AIRPORT   MOSUNNY   82  73  74 S8        29.89S
TINIAN AP      MOSUNNY   84  73  70 E10       29.86F HX  91
SAIPAN AP      MOSUNNY   86  75  70 SE12      29.87F HX  95

$$

PMZ161-290700-
REPUBLIC OF PALAU-

CITY           SKY/WX    TMP DP  RH WIND       PRES   REMARKS
KOROR AP       PTSUNNY   88  77  70 SE6       29.78F HX 100
KOROR WSO      PTSUNNY   90  77  66 SE8       29.79F HX 102

$$

PMZ171>174-290700-
FEDERATED STATES OF MICRONESIA-

CITY           SKY/WX    TMP DP  RH WIND       PRES   REMARKS
YAP AIRPORT    MOSUNNY   88  79  74 VRB6      29.80F HX 102
CHUUK AP       PTSUNNY   88  82  84 NE12      29.79R HX 108
POHNPEI AP     NOT AVBL
POHNPEI WSO    CLOUDY    84  75  74 E12       29.82S HX  92
KOSRAE AP      NOT AVBL

$$

PMZ181-290700-
REPUBLIC OF THE MARSHALL ISLANDS-

CITY           SKY/WX    TMP DP  RH WIND       PRES   REMARKS
KWAJALEIN AP   MOSUNNY   86  73  66 NE20      29.81S HX  93
MAJURO AP      NOT AVBL
MAJURO WSO     PTCLDY    82  77  83 E10       29.77R HX  91

$$





USA.gov is the U.S. government's official web portal to all federal, state and local government web resources and services.